Weather Roundup
Issued by NWS Chicago, IL

Home | Current Version | Previous Version | Graphics & Text | Print | Product List | Glossary On
Versions: 1 2 3 4 5 6 7 8 9 10 11 12 13 14 15 16 17 18 19 20 21 22 23 24 25 26 27 28 29 30 31 32 33 34 35 36 37 38 39 40 41 42 43 44 45 46 47 48 49 50
000
NZUS59 KLOT 200109
HRRLOT

CHICAGO AREA WEATHER ROUNDUP
NATIONAL WEATHER SERVICE CHICAGO/ROMEOVILLE IL
800 PM CDT THU OCT 19 2017

NOTE: "FAIR" INDICATES FEW OR NO CLOUDS BELOW 12,000 FEET WITH NO
SIGNIFICANT WEATHER AND/OR OBSTRUCTIONS TO VISIBILITY.

* THESE STATIONS ARE NOT UNDER NWS QUALITY CONTROL. THEY ALSO MAY NOT
  REPORT WEATHER SUCH AS PRECIPITATION OR FOG.

ILZ005-006-012>014-019>023-200200-
NORTHEAST ILLINOIS

CITY           SKY/WX    TMP DP  RH WIND       PRES   REMARKS
OHARE          PTCLDY    57  30  35 SE7       30.16S
MIDWAY         MOCLDY    59  40  49 SE5       30.17S
AURORA         CLEAR     56  39  53 SE5       30.16S
LANSING*       CLOUDY    54  42  63 CALM      30.18S
JOLIET*        CLOUDY    58  38  48 CALM      30.16S
WAUKEGAN       CLEAR     51  32  48 S5        30.16S
DUPAGE AIRPORT CLOUDY    56  35  45 SE5       30.16R
WHEELING       CLEAR     52  35  52 CALM      30.18S
KANKAKEE*      CLOUDY    58  41  53 E3        30.17S
MORRIS*        CLOUDY    60  36  41 E8        30.14F
LEWIS AIRPORT* CLOUDY    57  34  42 E6        30.16F
NORTHERLY ISL    N/A     57  47  69 SE5         N/A
$$

WIZ051-052-058>065-066-070>072-200200-
SOUTHEAST WISCONSIN

CITY           SKY/WX    TMP DP  RH WIND       PRES   REMARKS
MILWAUKEE      PTCLDY    57  26  30 S9        30.15F
KENOSHA*       CLEAR     52  29  41 S7        30.16S
RACINE*        CLEAR     55  23  28 S6        30.17S
BURLINGTON     CLEAR     52  35  53 S5        30.15S
WAUKESHA       CLEAR     55  30  38 S9        30.15S
WEST BEND      CLEAR     54  32  43 S6        30.13S
$$

INZ001>003-010>013-019-020-200200-
NORTHWEST INDIANA

CITY           SKY/WX    TMP DP  RH WIND       PRES   REMARKS
GARY*          PTCLDY    48  45  87 E3        30.18S
MICHIGAN CITY* NOT AVBL
RENSSELAER*    NOT AVBL
VALPARAISO     CLOUDY    52  40  63 NE5       30.19S
$$

LMZ740>746-200200-
SOUTHERN LAKE MICHIGAN

STATION/POSITION TIME  SKY/WX   TEMP WIND        PRES    VSBY
                                AIR  DIR/SP/G
                 (UTC)          (F)  (DEG/KT/KT) (MB)    (MI)
HARRISON CRIB    0020            60  160/  7/ 10   N/A
BURNHAM HARBOR   0100            57  120/  3/  8   N/A
CALUMET HARBOR   0030            59  100/  3/  4 1021.2S
BURNS HARBOR     0040            63  140/  2/  7 1022.4S
MICHIGAN CITY    0040            57  130/  7/  7   N/A
$$

ABBREVIATIONS USED IN REMARKS
   TC - TEMPERATURE IN CELSIUS
  WCI - WIND CHILL INDEX
   HX - HEAT INDEX
  VSB - VISIBILITY
$$




USA.gov is the U.S. government's official web portal to all federal, state and local government web resources and services.